This is the latest recevied weather packets stored in our database for station/object K7AEL. If no packets are shown the sender has not sent any weather packets the latest 10 day(s).
| Time | Temp. | Humidity | Pressure | Rain* | Wind** | Luminosity | Snow |
|---|---|---|---|---|---|---|---|
| 1777293400 | 11.11° C | 47% | 1014.5 hPa | 0 mm | - | 1 W/m² | - |
| 1777293097 | 11.11° C | 47% | 1014.7 hPa | 0 mm | - | 1 W/m² | - |
| 1777292795 | 10.56° C | 47% | 1014.5 hPa | 0 mm | - | 0 W/m² | - |
| 1777292492 | 11.11° C | 47% | 1014.5 hPa | 0 mm | - | 0 W/m² | - |
| 1777292188 | 11.11° C | 46% | 1014.4 hPa | 0 mm | - | 0 W/m² | - |
| 1777291884 | 10.56° C | 45% | 1014.4 hPa | 0 mm | - | 0 W/m² | - |
| 1777291581 | 11.11° C | 46% | 1014.3 hPa | 0 mm | - | 0 W/m² | - |
| 1777291278 | 10.56° C | 48% | 1014.4 hPa | 0 mm | - | 0 W/m² | - |
| 1777290673 | 11.11° C | 47% | 1014.4 hPa | 0 mm | - | 0 W/m² | - |
| 1777290369 | 11.67° C | 45% | 1014.4 hPa | 0 mm | - | 0 W/m² | - |
| 1777290064 | 12.22° C | 43% | 1014.3 hPa | 0 mm | - | 0 W/m² | - |
| 1777289760 | 12.22° C | 41% | 1014.3 hPa | 0 mm | - | 0 W/m² | - |
| 1777289456 | 12.78° C | 41% | 1014.1 hPa | 0 mm | - | 0 W/m² | - |
| 1777289153 | 12.78° C | 41% | 1014.3 hPa | 0 mm | - | 0 W/m² | - |
| 1777288849 | 12.78° C | 42% | 1014.3 hPa | 0 mm | - | 0 W/m² | - |
| 1777288546 | 12.78° C | 42% | 1014.1 hPa | 0 mm | - | 0 W/m² | - |
| 1777288243 | 12.78° C | 42% | 1014.1 hPa | 0 mm | - | 0 W/m² | - |
| 1777287939 | 12.22° C | 43% | 1014.1 hPa | 0 mm | - | 0 W/m² | - |
| 1777287636 | 12.22° C | 43% | 1014 hPa | 0 mm | - | 0 W/m² | - |
| 1777287332 | 12.22° C | 44% | 1014.1 hPa | 0 mm | - | 0 W/m² | - |
| 1777287028 | 12.22° C | 44% | 1014.1 hPa | 0 mm | - | 0 W/m² | - |
| 1777286726 | 12.22° C | 44% | 1014.1 hPa | 0 mm | - | 0 W/m² | - |
| 1777286424 | 12.22° C | 43% | 1014.1 hPa | 0 mm | - | 0 W/m² | - |
| 1777286120 | 12.78° C | 43% | 1014 hPa | 0 mm | - | 0 W/m² | - |
| 1777285818 | 12.78° C | 43% | 1014 hPa | 0 mm | - | 0 W/m² | - |
* Rain latest hour (hover to see other rain measurements)
** Current wind speed in m/s (hover to see current wind gust speed)